User: anonymous   Login
Location: Unspecified
(0.0000°N, 0.0000°E)
Time: 05:20:50
(UTC+00:00)
Language:

STARLINK-31769 - Orbit

View from above orbital plane
View from above orbital plane
View from above satellite
View from above satellite

Ground track
Ground track

The orbit is defined by the following mean orbital elements,

1 59617U          26145.55064044 +.00000000 +00000-0 +50561-4 0 00008
2 59617  43.0027 324.1731 0001122 275.0719  85.0005 15.27575059    08
Epoch (UTC): 25 May 2026 13:12:55
Eccentricity: 0.0001122
inclination: 43.0027°
perigee height: 482 km
apogee height: 484 km
right ascension of ascending node: 324.1731°
argument of perigee: 275.0719°
revolutions per day: 15.27575059
mean anomaly at epoch: 85.0005°

The dashed part of the orbit path shows where the satellite is in the earth's shadow,  

DLR